User: anonymous   Login
Location: Caltech
(34.1382°N, 118.1253°W)
Time: 23:32:39
(UTC-07:00)
Language:

NOSS 3-2 (A) - Orbit

View from above orbital plane
View from above orbital plane
View from above satellite
View from above satellite

Ground track
Ground track

The orbit data is extracted from the following two-line orbital elements,

1 28095U 03054A   16139.08461021 0.00000020  00000-0  29167-4 0    02
2 28095  63.4284 240.7249 0266000 357.7039   2.2961 13.41337080    09
Epoch (UTC): 18 May 2016 02:01:50
Eccentricity: 0.0266000
inclination: 63.4284°
perigee height: 905 km
apogee height: 1303 km
right ascension of ascending node: 240.7249°
argument of perigee: 357.7039°
revolutions per day: 13.41337080
mean anomaly at epoch: 2.2961°
orbit number at epoch: 0

The dashed part of the orbit path shows where the satellite is in the earth's shadow,  

DLR